Weather History for KOLU - May, 2013

Change the Weather History Date:

Saturday, May 11, 2013

  Actual Average Record
Temperature  
Mean Temperature 48 °F -  
Max Temperature 60 °F 71 °F 88 °F (1958)
Min Temperature 35 °F 49 °F 31 °F (1979)
Degree Days  
Heating Degree Days 18    
Moisture  
Dew Point 30 °F    
Average Humidity 45    
Maximum Humidity 82    
Minimum Humidity 19    
Precipitation  
Precipitation 0.00 in - - ()
Sea Level Pressure  
Sea Level Pressure 30.25 in    
Wind  
Wind Speed 12 mph (NNW)    
Max Wind Speed 28 mph    
Max Gust Speed 38 mph    
Visibility 10 miles    
Events      
Averages and records for this station are not official NWS values.
T = Trace of Precipitation, MM = Missing Value Source: NWS Daily Summary

Daily Weather History Graph

Daily Weather History Graph

Search for Another Location

Airport or City:

Trip Planner

Search our weather history database for the weather conditions in past years. The results will help you decide how hot, cold, wet, or windy it might be!

Date:

Astronomy

May. 11, 2013 Rise Set
Actual Time 6:14 AM CDT 8:37 PM CDT
Civil Twilight 5:43 AM CDT 9:09 PM CDT
Nautical Twilight 5:04 AM CDT 9:47 PM CDT
Astronomical Twilight 4:21 AM CDT 10:31 PM CDT
Moon 7:22 AM CDT (5/11) 10:19 PM CDT (5/11)
Length of Visible Light 15h 26m
Length of Day
14h 23m
Waxing Crescent, 3% of the Moon is Illuminated
May 11
Waxing Crescent
May 17
First Quarter
May 24
Full
May 31
Last Quarter
Jun 8
New

Hourly Weather History & Observations

Time (CDT) Temp. Windchill Dew Point Humidity Pressure Visibility Wind Dir Wind Speed Gust Speed Precip Events Conditions
12:15 AM 48.2 °F - 42.8 °F 82% 30.08 in 10.0 mi WNW 4.6 mph - N/A   Mostly Cloudy
12:35 AM 50.0 °F - 44.6 °F 82% 30.08 in 10.0 mi WNW 3.5 mph - N/A   Partly Cloudy
12:55 AM 51.8 °F - 44.6 °F 76% 30.08 in 10.0 mi WNW 5.8 mph - N/A   Scattered Clouds
1:15 AM 51.8 °F - 44.6 °F 76% 30.09 in 10.0 mi WNW 8.1 mph - N/A   Scattered Clouds
1:35 AM 53.6 °F - 44.6 °F 72% 30.09 in 10.0 mi West 8.1 mph - N/A   Clear
1:55 AM 53.6 °F - 42.8 °F 67% 30.10 in 10.0 mi NW 9.2 mph - N/A   Clear
2:15 AM 55.4 °F - 42.8 °F 63% 30.10 in 10.0 mi NW 15.0 mph 19.6 mph N/A   Clear
2:35 AM 55.4 °F - 44.6 °F 67% 30.11 in 10.0 mi NNW 17.3 mph 23.0 mph N/A   Clear
2:55 AM 55.4 °F - 42.8 °F 63% 30.12 in 10.0 mi North 16.1 mph 23.0 mph N/A   Clear
3:15 AM 55.4 °F - 42.8 °F 63% 30.13 in 10.0 mi North 18.4 mph 26.5 mph N/A   Clear
3:35 AM 53.6 °F - 37.4 °F 54% 30.14 in 10.0 mi North 25.3 mph 32.2 mph N/A   Clear
3:55 AM 53.6 °F - 37.4 °F 54% 30.15 in 10.0 mi North 19.6 mph 29.9 mph N/A   Clear
4:15 AM 51.8 °F - 39.2 °F 62% 30.16 in 10.0 mi North 11.5 mph - N/A   Clear
4:35 AM 51.8 °F - 39.2 °F 62% 30.17 in 10.0 mi North 15.0 mph - N/A   Clear
4:55 AM 50.0 °F - 35.6 °F 58% 30.18 in 10.0 mi North 15.0 mph 23.0 mph N/A   Clear
5:15 AM 48.2 °F - 33.8 °F 58% 30.20 in 10.0 mi North 10.4 mph - N/A   Clear
5:35 AM 46.4 °F 42.9 °F 33.8 °F 62% 30.20 in 10.0 mi North 6.9 mph - N/A   Clear
5:55 AM 46.4 °F 44.3 °F 33.8 °F 62% 30.21 in 10.0 mi North 4.6 mph - N/A   Clear
6:15 AM 44.6 °F 42.2 °F 33.8 °F 66% 30.23 in 10.0 mi North 4.6 mph - N/A   Clear
6:35 AM 46.4 °F 42.4 °F 35.6 °F 66% 30.24 in 10.0 mi North 8.1 mph - N/A   Clear
6:55 AM 46.4 °F 41.9 °F 37.4 °F 71% 30.25 in 10.0 mi North 9.2 mph - N/A   Clear
7:15 AM 48.2 °F - 37.4 °F 66% 30.27 in 10.0 mi NNW 6.9 mph - N/A   Clear
7:35 AM 48.2 °F - 37.4 °F 66% 30.27 in 10.0 mi North 8.1 mph - N/A   Clear
7:55 AM 50.0 °F - 39.2 °F 66% 30.28 in 10.0 mi NNW 8.1 mph - N/A   Clear
8:15 AM 51.8 °F - 37.4 °F 58% 30.29 in 10.0 mi North 13.8 mph 17.3 mph N/A   Clear
8:35 AM 51.8 °F - 39.2 °F 62% 30.29 in 10.0 mi NNW 16.1 mph - N/A   Clear
8:55 AM 53.6 °F - 37.4 °F 54% 30.30 in 10.0 mi NNW 15.0 mph 20.7 mph N/A   Clear
9:15 AM 53.6 °F - 35.6 °F 51% 30.30 in 10.0 mi NNW 19.6 mph - N/A   Clear
9:35 AM 55.4 °F - 30.2 °F 38% 30.30 in 10.0 mi North 18.4 mph 23.0 mph N/A   Clear
9:55 AM 55.4 °F - 28.4 °F 36% 30.30 in 10.0 mi North 17.3 mph 31.1 mph N/A   Clear
10:15 AM 57.2 °F - 28.4 °F 33% 30.30 in 10.0 mi North 19.6 mph 27.6 mph N/A   Clear
10:35 AM 57.2 °F - 28.4 °F 33% 30.30 in 10.0 mi NNW 25.3 mph 33.4 mph N/A   Clear
10:55 AM 57.2 °F - 28.4 °F 33% 30.30 in 10.0 mi NNW 25.3 mph 38.0 mph N/A   Clear
11:15 AM 57.2 °F - 28.4 °F 33% 30.31 in 10.0 mi NNW 27.6 mph 33.4 mph N/A   Clear
11:35 AM 57.2 °F - 28.4 °F 33% 30.31 in 10.0 mi NNW 27.6 mph 33.4 mph N/A   Clear
11:55 AM 57.2 °F - 28.4 °F 33% 30.31 in 10.0 mi NNW 25.3 mph 34.5 mph N/A   Clear
12:15 PM 59.0 °F - 28.4 °F 31% 30.31 in 10.0 mi NNW 19.6 mph 33.4 mph N/A   Clear
12:35 PM 59.0 °F - 28.4 °F 31% 30.31 in 10.0 mi North 23.0 mph 31.1 mph N/A   Clear
12:55 PM 59.0 °F - 28.4 °F 31% 30.31 in 10.0 mi NNW 21.9 mph 29.9 mph N/A   Clear
1:15 PM 60.8 °F - 28.4 °F 29% 30.31 in 10.0 mi NW 24.2 mph 32.2 mph N/A   Clear
1:35 PM 59.0 °F - 28.4 °F 31% 30.31 in 10.0 mi NNW 24.2 mph 32.2 mph N/A   Clear
1:55 PM 60.8 °F - 26.6 °F 27% 30.31 in 10.0 mi NNW 19.6 mph 28.8 mph N/A   Clear
2:15 PM 60.8 °F - 24.8 °F 25% 30.31 in 10.0 mi NW 19.6 mph 29.9 mph N/A   Clear
2:35 PM 59.0 °F - 24.8 °F 27% 30.31 in 10.0 mi NNW 23.0 mph 28.8 mph N/A   Clear
2:55 PM 60.8 °F - 21.2 °F 22% 30.31 in 10.0 mi NNW 24.2 mph 32.2 mph N/A   Clear
3:15 PM 60.8 °F - 19.4 °F 20% 30.30 in 10.0 mi NNW 25.3 mph 33.4 mph N/A   Clear
3:35 PM 60.8 °F - 19.4 °F 20% 30.30 in 10.0 mi NNW 18.4 mph 33.4 mph N/A   Clear
3:55 PM 59.0 °F - 17.6 °F 20% 30.30 in 10.0 mi NW 21.9 mph 35.7 mph N/A   Clear
4:15 PM 60.8 °F - 17.6 °F 19% 30.29 in 10.0 mi NNW 25.3 mph 32.2 mph N/A   Clear
4:35 PM 59.0 °F - 19.4 °F 22% 30.29 in 10.0 mi NNW 21.9 mph 26.5 mph N/A   Clear
4:55 PM 60.8 °F - 19.4 °F 20% 30.28 in 10.0 mi North 19.6 mph 28.8 mph N/A   Clear
5:15 PM 59.0 °F - 19.4 °F 22% 30.28 in 10.0 mi NNW 19.6 mph 26.5 mph N/A   Clear
5:35 PM 59.0 °F - 19.4 °F 22% 30.28 in 10.0 mi North 13.8 mph 23.0 mph N/A   Clear
5:55 PM 59.0 °F - 19.4 °F 22% 30.28 in 10.0 mi NNW 15.0 mph 24.2 mph N/A   Clear
6:15 PM 57.2 °F - 19.4 °F 23% 30.28 in 10.0 mi NNW 13.8 mph 24.2 mph N/A   Clear
6:35 PM 59.0 °F - 19.4 °F 22% 30.27 in 10.0 mi NNW 13.8 mph 19.6 mph N/A   Clear
6:55 PM 57.2 °F - 19.4 °F 23% 30.27 in 10.0 mi NNW 16.1 mph 20.7 mph N/A   Clear
7:15 PM 57.2 °F - 19.4 °F 23% 30.27 in 10.0 mi North 13.8 mph 19.6 mph N/A   Clear
7:35 PM 57.2 °F - 19.4 °F 23% 30.26 in 10.0 mi NNW 10.4 mph 19.6 mph N/A   Clear
7:55 PM 55.4 °F - 21.2 °F 26% 30.26 in 10.0 mi North 10.4 mph - N/A   Clear
8:15 PM 53.6 °F - 19.4 °F 26% 30.27 in 10.0 mi North 8.1 mph - N/A   Clear
8:35 PM 51.8 °F - 21.2 °F 30% 30.27 in 10.0 mi North 5.8 mph - N/A   Clear
8:55 PM 48.2 °F - 21.2 °F 34% 30.27 in 10.0 mi North 3.5 mph - N/A   Clear
9:15 PM 46.4 °F 45.2 °F 23.0 °F 40% 30.27 in 10.0 mi North 3.5 mph - N/A   Clear
9:35 PM 44.6 °F - 24.8 °F 46% 30.27 in 10.0 mi Calm Calm - N/A   Clear
9:55 PM 42.8 °F - 24.8 °F 49% 30.27 in 10.0 mi Calm Calm - N/A   Clear
10:15 PM 41.0 °F - 24.8 °F 53% 30.28 in 10.0 mi Calm Calm - N/A   Clear
10:35 PM 42.8 °F - 26.6 °F 53% 30.28 in 10.0 mi Calm Calm - N/A   Clear
10:55 PM 42.8 °F - 24.8 °F 49% 30.27 in 10.0 mi Calm Calm - N/A   Clear
11:15 PM 41.0 °F - 24.8 °F 53% 30.27 in 9.0 mi Calm Calm - N/A   Clear
11:35 PM 35.6 °F - 24.8 °F 65% 30.27 in 10.0 mi Calm Calm - N/A   Clear
11:55 PM 41.0 °F - 26.6 °F 57% 30.27 in 10.0 mi Calm Calm - N/A   Clear